Weather History for Logan, UT

Change the Weather History Date:

Sunday, November 20, 2011

  Actual Average Record
Temperature  
Mean Temperature 16 °F -  
Max Temperature 24 °F 42 °F 61 °F (1966)
Min Temperature 8 °F 23 °F 7 °F (1956)
Degree Days  
Heating Degree Days 49    
Moisture  
Dew Point 12 °F    
Average Humidity 89    
Maximum Humidity 96    
Minimum Humidity 85    
Precipitation  
Precipitation 0.00 in - - ()
Sea Level Pressure  
Sea Level Pressure 30.05 in    
Wind  
Wind Speed 0 mph (NW)    
Max Wind Speed 6 mph    
Max Gust Speed -    
Visibility 6 miles    
Events Fog , Snow    
Averages and records for this station are not official NWS values.
T = Trace of Precipitation, MM = Missing Value Source: NWS Daily Summary

Daily Weather History Graph

Daily Weather History Graph

Search for Another Location

Airport:

Trip Planner

Search our weather history database for the weather conditions in past years. The results will help you decide how hot, cold, wet, or windy it might be!

Date:

Astronomy

Nov. 20, 2011 Rise Set
Actual Time 7:22 AM MST 5:03 PM MST
Civil Twilight 6:52 AM MST 5:33 PM MST
Nautical Twilight 6:18 AM MST 6:07 PM MST
Astronomical Twilight 5:45 AM MST 6:40 PM MST
Moon 1:51 AM MST (11/20) 1:57 PM MST (11/20)
Length of Visible Light 10h 40m
Length of Day
9h 40m
Waning Crescent, 26% of the Moon is Illuminated
Nov 20
Waning Crescent
Nov 24
New
Dec 2
First Quarter
Dec 10
Full
Dec 17
Last Quarter

Hourly Weather History & Observations

Time (MST) Temp. Windchill Dew Point Humidity Pressure Visibility Wind Dir Wind Speed Gust Speed Precip Events Conditions
12:51 AM 8.1 °F - 5.0 °F 87% 30.09 in 0.5 mi Calm Calm - N/A Fog Light Freezing Fog
1:15 AM 10.4 °F - 6.8 °F 85% 29.94 in 2.0 mi Calm Calm - N/A   Mostly Cloudy
1:35 AM 8.6 °F - 6.8 °F 92% 29.93 in 2.0 mi Calm Calm - N/A   Partly Cloudy
1:44 AM 8.6 °F - 6.8 °F 92% 29.93 in 5.0 mi Calm Calm - N/A   Partly Cloudy
1:51 AM 9.0 °F - 6.1 °F 88% 30.07 in 6.0 mi Calm Calm - N/A   Partly Cloudy
2:11 AM 8.6 °F - 5.0 °F 85% 29.94 in 1.8 mi Calm Calm - N/A   Partly Cloudy
2:19 AM 8.6 °F - 6.8 °F 92% 29.94 in 0.5 mi Calm Calm - N/A Fog Light Freezing Fog
2:26 AM 8.6 °F - 6.8 °F 92% 29.94 in 0.5 mi Calm Calm - N/A Fog Light Freezing Fog
2:34 AM 8.6 °F - 6.8 °F 92% 29.94 in 1.5 mi Calm Calm - N/A   Partly Cloudy
2:37 AM 8.6 °F - 6.8 °F 92% 29.94 in 3.0 mi Calm Calm - N/A   Partly Cloudy
2:51 AM 10.0 °F - 7.0 °F 87% 30.08 in 8.0 mi Calm Calm - N/A   Mostly Cloudy
3:22 AM 8.6 °F - 6.8 °F 92% 29.94 in 1.8 mi Calm Calm - N/A   Scattered Clouds
3:31 AM 8.6 °F - 6.8 °F 92% 29.94 in 3.0 mi Calm Calm - N/A   Mostly Cloudy
3:36 AM 8.6 °F - 6.8 °F 92% 29.94 in 2.0 mi Calm Calm - N/A   Mostly Cloudy
3:42 AM 8.6 °F - 6.8 °F 92% 29.94 in 0.8 mi Calm Calm - N/A   Mist
3:51 AM 10.0 °F - 7.0 °F 87% 30.07 in 1.2 mi Calm Calm - N/A   Mostly Cloudy
3:54 AM 10.4 °F - 6.8 °F 85% 29.94 in 3.0 mi Calm Calm - N/A   Mostly Cloudy
4:00 AM 8.6 °F - 6.8 °F 92% 29.94 in 5.0 mi Calm Calm - N/A   Scattered Clouds
4:51 AM 12.0 °F - 9.0 °F 88% 30.09 in 6.0 mi Calm Calm - N/A   Overcast
5:51 AM 12.9 °F - 10.9 °F 92% 30.09 in 10.0 mi Calm Calm - N/A   Overcast
6:51 AM 15.1 °F - 12.0 °F 88% 30.11 in 10.0 mi Calm Calm - N/A   Overcast
7:51 AM 16.0 °F - 14.0 °F 92% 30.11 in 10.0 mi Calm Calm - N/A   Overcast
8:51 AM 15.1 °F - 12.9 °F 91% 30.16 in 10.0 mi Calm Calm - 0.00 in   Clear
9:51 AM 17.1 °F - 16.0 °F 96% 30.14 in 10.0 mi Calm Calm - N/A   Overcast
10:51 AM 19.9 °F 14.9 °F 17.1 °F 89% 30.14 in 10.0 mi North 3.5 mph - N/A   Mostly Cloudy
11:51 AM 19.9 °F - 16.0 °F 85% 30.13 in 10.0 mi Calm Calm - N/A   Overcast
12:51 PM 21.0 °F 16.2 °F 17.1 °F 85% 30.12 in 10.0 mi WNW 3.5 mph - N/A   Overcast
2:42 PM 23.0 °F - 19.4 °F 86% 29.99 in 2.5 mi Calm Calm - 0.00 in Snow Light Snow
3:51 PM 23.0 °F - 19.0 °F 85% 30.13 in 10.0 mi Calm Calm - 0.00 in   Overcast
4:51 PM 23.0 °F - 19.9 °F 88% 30.13 in 8.0 mi Calm Calm - 0.00 in Snow Light Snow
5:51 PM 23.0 °F - 19.9 °F 88% 30.15 in 10.0 mi Calm Calm - 0.00 in   Overcast
6:51 PM 24.1 °F - 21.0 °F 88% 30.12 in 10.0 mi Calm Calm - 0.00 in   Overcast
7:51 PM 23.0 °F - 19.9 °F 88% 30.14 in 10.0 mi Calm Calm - N/A   Overcast
9:51 PM 23.0 °F 15.8 °F 19.9 °F 88% 30.15 in 10.0 mi WNW 5.8 mph - 0.00 in   Mostly Cloudy
10:51 PM 23.0 °F - 21.0 °F 92% 30.14 in 10.0 mi Calm Calm - N/A   Overcast
11:51 PM 23.0 °F - 21.0 °F 92% 30.14 in 9.0 mi Calm Calm - N/A   Overcast